Tracking 29489 objects as of 9-Sep-2024
HD Live streaming from Space Station
objects crossing your sky now

FENGYUN 1C DEB

Track FENGYUN 1C DEB now!
10-day predictions


NORAD ID: 45527
Int'l Code: 1999-025EYS
Perigee: 791.6 km
Apogee: 878.3 km
Inclination: 98.8 °
Period: 101.5 minutes
Semi major axis: 7205 km
RCS: Unknown
Launch date: May 10, 1999
Source: People's Republic of China (PRC)
Launch site: Taiyaun Space Center, China (TSC)

Note: This is SATELLITE DEBRIS
Your satellite tracking list
Your tracking list is empty




NASA's NSSDC Master Catalog

Two Line Element Set (TLE):
1 45527U 99025EYS 24253.15174454  .00012596  00000-0  59081-2 0  9993
2 45527  98.7719 316.9583 0060117 115.4310 245.3104 14.19270743330464
Source of the keplerian elements: AFSPC